Wind_Speed
7 7 7 6 7 7 7 7 6 5 5 5 6 6 7 7 7 6 6 6 5 6 6 5 6 6 6 6 5 5 7 8 9 10 9 9 9 9 9 9 9 10 11 10 10 10 11 11 12 13 13 15 17 19 20 21 21 22 23 23 23 23 23 24 24 23 23 23 21 21 20 20 21 22
8 8 8 7 7 6 6 7 7 6 5 5 6 7 7 7 7 7 6 6 6 6 6 4 3 4 5 6 5 5 7 8 9 10 10 10 10 10 10 11 10 10 11 11 11 11 11 11 12 12 12 13 15 18 19 20 21 22 22 22 22 22 22 22 22 22 22 22 21 20 19 19 19 19
8 8 8 8 8 7 7 6 7 7 6 6 7 8 8 8 8 8 7 7 7 7 7 6 4 3 4 5 4 5 6 8 10 11 11 12 12 12 12 12 12 12 11 11 11 11 11 11 12 12 13 13 14 16 18 19 21 22 22 22 22 22 21 21 21 21 21 21 21 20 19 18 17 17
9 8 8 8 8 8 7 7 7 8 7 6 7 8 8 8 9 8 8 7 8 8 8 7 6 5 5 5 5 6 7 8 10 11 12 13 13 14 13 13 14 13 12 11 12 12 11 12 12 13 14 14 14 15 16 18 20 21 21 22 21 21 21 20 20 20 20 20 20 20 19 18 17 16
9 9 9 9 9 8 8 8 8 8 7 7 7 8 7 8 9 9 8 8 9 9 9 9 9 9 7 7 7 7 8 9 10 11 12 13 14 14 14 13 13 13 12 11 11 11 11 11 12 12 14 15 16 16 16 17 19 20 21 21 21 21 20 20 19 19 19 19 19 19 19 18 17 15
9 10 10 10 10 9 9 10 10 9 9 8 9 9 8 7 9 9 9 10 10 10 10 10 11 11 9 8 8 8 9 10 11 12 12 13 14 14 14 13 12 12 12 11 11 11 11 11 11 12 12 14 16 17 17 18 19 20 20 20 20 20 20 19 19 18 18 18 18 18 18 18 17 15
9 9 10 10 10 10 10 10 11 11 11 11 11 11 10 10 10 11 11 11 12 11 11 11 11 11 10 9 9 8 9 10 12 13 14 14 14 14 13 12 11 11 11 11 11 11 10 11 11 11 11 12 15 17 18 19 19 19 19 19 19 20 19 19 18 18 18 17 17 17 17 17 17 16
9 9 10 10 10 10 10 10 11 11 11 12 11 11 11 11 12 12 12 12 12 11 11 11 10 10 10 10 9 9 10 10 11 13 14 14 15 14 13 11 10 10 10 11 11 10 9 9 10 10 10 12 14 16 18 18 18 18 18 17 18 19 19 19 18 18 17 17 16 16 16 16 16 16
9 10 10 10 10 10 10 11 11 10 11 11 10 10 11 11 12 12 11 11 11 11 11 11 10 10 10 10 10 10 10 11 12 13 14 14 14 14 12 10 9 10 10 10 9 9 8 9 9 10 11 12 14 17 17 17 17 17 17 17 17 18 18 18 18 17 17 16 16 16 16 16 15 15
10 11 11 11 11 11 11 11 11 11 11 12 11 11 11 11 11 11 11 11 11 11 11 11 10 10 10 10 11 10 11 12 12 13 14 14 14 14 12 11 9 9 9 9 9 8 8 9 9 10 11 12 14 17 18 17 16 15 15 16 16 16 17 17 18 17 17 16 16 15 15 15 15 15
11 12 12 12 12 12 12 12 12 12 13 13 13 13 12 12 12 12 12 12 12 12 11 11 12 11 11 11 11 11 11 12 12 12 13 14 15 15 14 11 9 8 8 9 9 8 8 10 10 10 11 12 14 16 18 17 16 15 15 15 16 16 16 17 17 17 16 16 15 15 15 15 15 15
12 13 13 12 12 12 12 12 12 13 14 14 14 14 14 13 13 13 13 13 13 14 13 13 13 13 13 12 12 12 12 12 13 13 13 13 14 15 15 13 9 8 9 10 10 8 8 10 11 11 12 12 13 15 16 16 16 16 15 15 16 16 16 16 16 16 16 16 15 15 14 14 14 14
14 14 13 13 13 13 13 12 13 14 15 15 15 15 15 15 15 15 15 15 15 15 16 16 15 15 15 15 15 14 14 14 14 14 14 14 14 14 16 15 11 8 8 11 12 10 9 10 11 12 12 13 13 14 14 15 16 17 17 16 16 17 17 17 17 17 17 16 16 15 15 14 13 14
15 15 14 14 13 14 14 13 14 15 15 16 16 17 17 17 17 17 17 17 17 17 18 18 18 18 18 18 17 17 17 16 16 16 15 15 15 15 16 17 15 10 8 10 12 11 10 12 12 12 13 13 12 12 12 13 15 17 17 17 17 16 17 17 17 17 17 17 17 16 16 15 14 14
16 16 16 16 15 15 16 16 16 16 16 16 17 17 18 18 18 18 18 18 18 18 19 20 20 19 20 21 20 19 19 18 17 17 16 16 16 15 16 18 18 14 11 12 14 13 12 13 13 12 13 14 13 11 11 12 14 16 17 18 18 17 17 17 17 18 18 18 18 18 17 17 16 15
17 17 17 17 16 16 16 16 18 19 18 17 17 18 18 18 19 18 18 18 18 19 20 21 21 21 21 22 22 21 20 20 19 19 18 17 17 17 17 18 20 19 16 15 16 16 14 14 14 13 13 14 14 13 12 13 15 16 17 18 19 19 19 18 18 18 18 18 18 18 18 18 18 18
18 18 18 18 17 16 16 18 19 19 19 19 18 18 18 18 18 18 18 18 18 19 19 20 21 21 21 22 23 22 21 20 20 20 20 19 18 18 18 19 19 20 18 17 18 19 18 16 16 15 15 15 16 15 14 15 16 17 18 19 20 20 21 20 19 18 18 19 19 18 18 18 18 19
20 21 21 20 19 18 19 20 19 18 19 20 20 20 20 20 19 19 19 19 19 19 19 19 20 21 21 21 22 21 21 20 19 20 21 21 20 19 20 20 20 20 20 18 18 20 20 18 18 18 17 17 18 17 17 17 18 18 19 20 20 21 21 22 21 20 19 19 19 19 18 18 19 19
22 22 21 20 21 22 22 22 20 19 18 20 21 22 22 22 21 21 21 21 21 21 21 21 21 21 21 21 21 21 20 20 19 19 20 21 21 20 20 21 21 22 21 19 18 19 21 19 19 19 19 19 20 20 20 20 20 20 20 21 21 21 20 21 22 22 21 20 20 20 20 19 19 19
22 22 21 21 23 25 25 24 23 22 21 20 21 22 24 24 23 23 23 22 22 23 23 23 22 22 22 21 21 21 21 21 20 20 20 21 21 20 20 21 22 22 22 21 19 19 21 21 20 20 20 21 21 22 22 21 21 22 23 23 22 21 21 21 22 23 23 22 21 20 20 20 20 20
21 21 22 23 24 26 26 24 24 25 23 22 21 22 24 25 24 23 23 23 23 23 23 24 24 24 23 23 22 22 22 22 21 21 21 22 22 22 22 22 23 23 23 22 21 21 21 22 21 21 22 23 24 24 24 24 23 23 23 23 23 22 22 22 23 23 24 25 23 22 21 21 21 21
22 22 23 23 23 24 24 24 25 26 26 25 24 24 25 26 25 25 25 25 24 24 24 25 25 25 25 24 24 24 23 23 22 21 21 22 22 22 23 23 24 25 24 24 23 23 23 23 23 23 23 25 26 26 26 27 27 26 25 24 24 24 24 24 24 25 25 26 26 25 23 22 22 22
24 24 24 24 24 24 25 26 26 27 27 27 27 27 27 27 27 27 27 27 26 26 26 27 27 26 26 26 26 25 25 24 24 23 22 22 22 22 23 23 23 25 26 26 25 25 25 25 25 25 24 25 27 28 29 29 30 29 28 27 26 25 25 25 25 26 26 26 26 26 26 24 23 22
27 27 27 27 28 27 27 28 28 28 28 28 29 29 29 29 29 30 30 30 29 29 29 28 28 28 28 28 28 27 27 26 25 25 25 24 24 23 23 23 24 25 26 27 26 27 27 27 27 27 26 24 25 28 29 30 30 31 31 30 29 28 27 27 26 27 27 27 27 26 25 25 25 24
29 29 29 30 30 30 29 29 29 29 29 30 30 30 30 30 31 31 32 32 31 31 30 30 29 29 29 29 29 29 29 27 27 27 27 27 26 26 25 25 25 26 26 27 27 27 28 29 29 29 28 27 26 26 28 29 30 30 31 32 32 32 31 30 29 28 28 28 28 28 26 26 25 25
27 27 28 29 29 30 29 29 29 29 29 30 30 30 30 30 30 29 30 31 31 31 30 29 29 28 27 27 27 27 28 27 26 27 27 27 27 27 27 27 27 27 27 27 27 27 28 29 30 30 29 29 28 27 27 28 29 30 31 32 32 33 32 32 31 30 28 27 27 27 28 27 26 26
26 26 27 27 27 27 28 28 28 28 28 28 28 28 29 30 29 28 27 28 29 30 30 29 28 27 26 25 24 24 25 25 25 26 26 27 27 27 27 27 27 27 27 27 28 28 28 29 29 29 29 29 28 28 27 27 27 28 28 29 30 31 31 31 31 31 30 28 26 26 26 27 27 27
26 25 24 24 25 25 26 26 27 27 28 28 28 28 28 29 28 27 27 28 28 29 29 29 28 27 26 25 24 25 26 27 27 27 28 28 28 27 27 28 28 28 28 28 29 29 30 30 30 30 29 29 28 28 27 27 27 27 27 27 28 29 30 30 31 31 31 30 29 28 27 26 26 26
25 24 24 23 24 24 25 26 27 27 28 28 29 29 29 29 29 29 30 30 30 30 30 30 30 29 29 29 29 29 31 31 31 32 32 32 31 31 30 30 30 31 31 31 31 31 31 32 32 32 32 31 31 30 29 27 27 28 29 28 27 28 30 30 31 31 31 32 32 31 30 29 28 27
25 26 26 26 26 27 27 28 29 29 30 30 31 31 31 32 32 33 34 34 34 34 34 33 33 34 34 34 35 35 35 35 34 34 35 35 35 34 34 33 34 35 35 35 35 35 35 35 35 35 35 35 35 35 34 32 30 30 31 31 30 29 30 31 31 31 31 31 33 34 34 33 32 30
28 28 29 30 30 30 30 31 32 32 33 33 33 34 34 34 35 36 37 37 37 37 37 37 37 38 38 39 38 38 38 37 36 36 36 36 36 36 36 35 35 36 37 38 38 39 39 39 38 38 39 39 38 39 39 38 36 34 35 35 35 33 33 33 34 33 32 31 32 33 34 35 36 36
32 32 32 32 33 33 33 33 34 34 35 35 36 36 36 36 36 37 37 38 38 38 38 39 39 40 40 40 40 40 40 39 38 38 38 38 38 38 37 37 37 37 38 39 40 41 41 42 42 41 42 42 41 41 41 41 41 40 39 39 39 39 38 38 37 36 36 35 33 33 34 35 37 38
36 36 36 36 36 35 35 36 36 36 37 37 38 39 39 39 40 40 39 39 39 38 39 40 40 41 41 41 41 41 41 41 41 41 41 42 42 41 41 41 41 41 41 41 41 42 43 43 44 44 44 44 44 44 44 43 43 43 43 42 42 42 42 42 42 41 40 39 38 36 35 36 38 39
38 38 39 39 39 39 39 40 40 39 39 40 40 41 42 42 43 43 43 42 41 41 42 42 42 42 42 43 43 43 43 44 43 44 45 45 45 45 45 45 45 45 45 44 44 45 45 45 46 46 46 46 46 46 47 47 45 44 44 44 44 44 44 45 45 45 44 44 43 41 38 37 38 41
39 40 41 41 42 42 43 43 43 43 43 43 43 43 43 44 44 45 44 44 44 45 45 45 44 45 45 45 45 45 46 46 45 46 47 48 48 48 48 48 48 48 48 48 48 48 48 48 49 48 48 48 48 47 48 49 49 48 47 46 46 46 45 46 47 47 47 47 47 46 43 41 40 41
42 42 43 44 44 44 45 46 46 46 46 46 45 45 45 45 45 46 45 45 46 47 47 47 47 48 48 48 48 48 49 49 48 48 48 49 50 50 50 51 51 51 51 51 51 51 52 52 53 53 52 51 51 49 48 50 51 52 51 50 49 48 48 48 48 48 48 49 49 49 47 45 43 42
44 44 45 46 46 46 47 47 48 48 48 48 47 47 47 47 47 48 48 49 49 50 50 50 51 51 51 52 52 52 52 52 52 52 52 52 52 53 53 53 53 53 54 54 54 54 55 55 56 56 56 56 55 53 52 51 52 54 55 55 54 52 52 52 51 50 50 51 51 52 51 49 47 45
47 47 47 48 48 48 49 49 49 49 49 49 49 49 49 50 50 51 51 52 53 53 54 55 55 55 56 56 56 56 56 57 57 56 56 56 56 56 56 56 56 56 56 56 57 57 58 58 59 59 60 60 59 58 57 55 53 54 57 60 59 58 57 57 56 55 54 54 54 55 54 54 52 50
49 50 50 50 51 51 51 51 51 52 52 52 52 53 53 53 54 54 55 56 57 57 58 58 59 59 59 60 60 60 60 60 60 60 60 60 59 59 59 59 59 58 58 58 59 59 60 60 61 61 62 62 63 63 62 61 58 57 58 60 62 62 62 62 62 61 60 59 59 58 58 58 57 56
51 52 52 53 54 54 54 54 54 55 55 56 56 57 57 58 58 59 60 61 61 61 61 62 62 62 62 62 63 63 63 63 63 63 63 63 62 62 62 62 62 62 61 61 61 61 62 62 63 63 64 64 64 65 65 64 63 62 61 62 64 65 65 65 65 65 65 64 64 64 63 63 62 61
54 54 55 56 56 56 57 57 57 58 58 59 59 60 60 61 62 62 63 64 64 64 64 64 64 64 65 65 65 65 64 64 65 65 65 66 66 66 66 66 66 65 65 65 65 65 65 66 66 66 67 67 67 67 67 66 66 65 65 66 66 68 68 68 69 69 68 68 68 68 68 68 67 66
56 57 57 58 58 59 59 59 60 61 61 62 62 63 63 64 64 64 65 65 65 65 65 65 65 65 66 66 66 65 66 66 66 67 67 68 68 68 69 69 70 70 70 70 70 69 70 70 71 71 71 72 72 72 72 71 70 69 69 69 69 70 71 72 72 73 73 73 73 73 73 73 72 70
59 59 59 60 60 60 61 62 62 63 63 64 64 64 65 65 65 65 65 65 65 65 65 65 65 65 65 65 65 66 67 67 68 69 69 70 70 70 71 72 72 73 74 74 74 74 74 74 75 75 75 75 76 76 76 75 75 74 74 73 73 73 73 74 74 75 75 76 77 78 78 79 78 76
60 61 61 61 61 62 63 63 64 64 65 65 65 65 65 65 65 65 64 64 64 64 65 65 65 65 65 66 66 67 68 69 70 70 71 71 72 72 73 74 75 75 76 76 77 77 77 77 77 78 78 78 78 78 78 78 78 78 78 77 77 76 76 76 76 76 76 75 77 78 80 81 81 81
61 62 62 62 62 63 63 64 64 64 64 64 64 64 64 64 64 64 64 64 64 65 65 66 66 67 67 68 69 69 70 71 71 71 72 72 72 73 73 74 75 75 76 77 77 77 78 78 78 79 79 79 79 80 81 81 81 81 81 81 81 80 80 80 80 80 79 78 77 78 80 80 81 82
Wind_Direction
290 293 296 304 305 308 314 314 313 310 306 300 296 299 303 305 313 321 321 325 328 325 324 319 305 305 314 315 310 300 297 298 293 299 320 338 346 349 350 355 -0 357 355 353 349 350 355 357 1 5 6 7 8 6 4 2 1 1 1 3 7 8 9 11 13 17 21 24 29 36 40 42 45 47
282 288 291 294 296 297 296 300 308 312 312 306 301 301 304 305 309 315 322 325 325 324 325 324 301 293 299 304 310 308 304 306 308 318 336 348 355 355 351 352 355 353 349 347 343 340 342 348 351 355 358 359 1 -0 359 358 358 358 358 359 3 5 7 8 10 12 17 20 23 29 37 42 45 47
278 280 285 289 293 296 296 297 302 304 307 311 308 305 306 308 308 314 322 325 326 328 331 336 331 303 295 308 323 316 307 313 321 328 337 346 352 352 350 347 347 347 345 339 336 334 334 338 341 345 348 349 352 355 355 355 355 355 355 356 359 2 4 6 8 10 13 16 19 23 30 37 43 47
278 278 282 286 290 294 298 299 296 296 301 306 304 302 305 307 307 310 316 318 320 321 324 332 332 322 319 327 332 326 320 322 326 328 333 339 344 345 346 343 339 339 339 333 329 328 328 329 332 337 340 340 343 349 353 353 352 352 352 353 356 360 3 4 6 9 11 13 15 18 23 29 37 44
280 281 282 282 283 286 287 289 288 290 295 295 293 296 301 302 303 307 310 311 311 310 315 321 319 318 324 330 331 328 323 321 322 326 328 332 336 337 338 338 333 331 331 327 322 320 319 319 323 329 332 334 337 344 350 351 350 350 350 351 353 357 0 2 5 7 9 11 13 15 18 22 28 35
284 284 284 281 281 280 278 278 278 279 283 285 286 289 292 295 298 299 301 301 302 305 308 308 307 310 317 323 326 324 318 316 318 322 327 330 331 332 334 334 330 326 324 319 315 313 311 311 315 321 324 327 332 338 345 349 348 347 349 350 351 354 358 -0 2 5 6 9 11 12 14 17 21 26
288 289 287 284 281 278 275 274 274 275 278 280 281 284 286 287 288 288 289 292 295 298 300 299 298 302 308 313 315 315 313 313 315 319 323 326 328 330 334 336 331 324 319 314 310 308 306 308 313 317 319 322 327 333 340 344 344 345 348 350 351 351 355 357 359 2 4 5 7 9 11 12 14 18
282 285 286 286 284 281 278 277 275 275 279 280 279 280 281 281 282 284 286 288 290 292 292 290 288 291 296 301 305 307 307 307 309 313 317 321 326 329 334 337 331 323 318 312 306 304 306 309 314 317 319 321 324 328 334 338 340 342 346 350 351 350 351 354 355 357 360 2 3 4 6 8 10 11
274 277 280 282 285 285 285 284 282 280 281 281 279 279 281 282 283 287 288 287 287 288 287 286 283 282 285 289 294 297 299 301 303 306 311 316 321 325 331 335 329 320 316 311 305 306 309 310 310 311 314 318 321 324 330 335 337 340 344 347 350 349 349 350 351 351 354 356 358 359 360 2 4 5
268 271 273 277 280 281 282 283 285 284 282 282 283 283 284 286 286 288 288 286 285 284 285 287 287 284 282 284 287 288 290 293 297 303 309 314 318 321 326 329 326 319 313 307 305 307 306 303 302 301 304 311 317 320 325 330 332 336 341 344 345 346 347 347 347 347 348 349 351 353 353 354 356 358
266 268 269 271 272 273 275 277 281 282 281 283 286 285 284 283 285 286 286 286 285 284 284 285 286 287 285 283 283 285 286 287 292 298 304 310 315 318 322 327 327 319 308 302 303 304 299 297 298 298 300 305 312 316 320 324 327 332 338 340 340 343 344 343 343 343 343 343 344 345 346 346 347 349
260 262 265 268 270 271 272 274 275 275 275 277 279 280 280 279 279 281 282 283 284 285 284 283 283 284 284 284 284 284 285 287 290 294 296 300 305 310 316 323 327 319 304 299 302 305 296 292 295 297 298 301 305 310 314 319 323 328 333 336 338 340 340 339 339 340 339 339 338 337 337 338 338 339
255 257 260 264 268 270 271 272 273 270 269 270 270 271 272 273 274 275 277 279 281 283 284 283 284 284 285 286 287 287 289 290 292 295 296 296 298 301 306 312 318 318 302 295 300 306 301 293 293 294 294 297 300 305 310 316 321 325 330 334 336 336 336 335 336 336 336 336 335 333 331 329 328 329
252 254 256 258 261 266 267 267 268 268 268 268 267 267 268 268 269 270 271 275 278 281 283 283 284 286 287 288 289 290 292 294 296 298 298 298 298 298 298 302 307 311 303 292 293 296 295 294 294 294 294 295 298 302 309 315 320 324 327 330 331 330 331 332 332 333 333 334 333 331 328 325 322 319
251 252 251 251 253 258 259 260 262 262 262 263 263 264 265 266 266 268 270 274 277 279 281 282 283 285 286 288 289 290 292 294 296 298 298 298 298 295 292 292 295 302 305 297 292 291 291 292 293 296 298 300 303 309 314 317 320 322 324 325 326 326 326 327 328 329 329 331 332 332 329 325 320 315
255 257 256 256 258 262 264 266 266 263 260 262 263 264 265 266 268 269 270 270 272 274 277 279 282 283 284 286 287 288 291 294 296 297 297 297 297 295 292 289 291 297 302 300 296 295 295 294 295 297 299 302 307 313 318 319 320 321 322 324 324 324 324 324 324 324 324 326 328 330 330 327 322 316
254 255 255 255 258 263 266 268 269 268 266 266 266 267 268 269 270 271 272 271 270 271 274 277 280 280 281 282 284 286 288 290 293 295 295 295 296 295 292 290 290 294 298 299 298 296 296 297 297 298 299 300 303 307 311 313 315 316 319 321 323 324 323 322 321 321 320 320 322 324 326 326 324 319
249 250 251 251 251 251 252 257 263 268 270 270 270 270 271 272 274 274 274 273 271 270 271 275 279 280 280 281 284 286 287 288 290 292 292 293 296 296 294 292 292 293 294 296 297 295 296 297 297 298 299 299 299 302 305 307 308 310 313 317 320 321 320 319 318 318 318 317 317 318 320 320 321 320
246 249 251 253 254 253 251 254 261 268 272 273 272 273 273 273 274 274 274 273 272 271 271 273 279 282 282 282 284 287 288 289 290 291 291 292 295 296 295 294 294 294 294 295 295 294 295 296 296 296 296 296 297 299 301 304 306 307 311 314 316 317 316 315 314 314 314 314 314 315 315 315 315 316
247 248 249 250 252 253 252 252 259 267 272 271 272 274 275 274 273 273 274 274 273 272 273 275 278 281 281 282 283 285 286 288 290 292 292 292 294 294 294 293 293 293 294 295 295 294 294 294 294 294 294 293 294 296 298 300 302 304 308 311 313 313 313 312 312 312 312 312 311 311 311 311 311 311
248 249 251 250 250 252 253 254 259 266 269 270 272 274 275 275 276 275 275 275 275 275 276 276 277 278 280 283 284 284 284 285 287 288 289 290 291 292 293 293 293 292 293 295 296 295 293 293 294 294 295 295 295 297 298 300 300 302 305 307 308 309 310 310 310 310 310 310 310 309 308 307 306 306
249 249 251 253 253 255 259 261 263 265 267 270 273 275 276 278 279 278 277 276 277 278 278 278 278 279 280 282 283 284 284 284 284 284 285 286 287 288 289 290 291 291 291 291 293 293 293 293 293 294 296 297 298 299 300 301 302 303 304 305 305 306 307 308 308 308 308 309 309 309 308 306 304 301
253 253 254 256 257 258 261 264 265 267 270 272 273 274 276 278 280 280 279 279 279 279 280 281 282 283 283 283 283 284 285 285 286 286 286 286 286 286 286 286 286 288 289 290 290 291 290 290 291 291 293 295 297 298 300 300 301 303 304 304 304 304 305 305 305 305 305 305 306 306 307 307 305 302
255 256 257 259 260 260 262 264 267 269 271 274 275 274 275 277 278 278 277 277 278 278 280 281 283 284 285 286 286 286 286 286 286 288 289 289 288 287 286 286 285 285 286 288 289 289 289 289 289 290 290 290 291 294 296 297 299 301 302 303 303 302 302 301 301 301 301 302 302 302 302 303 303 302
256 256 258 260 263 265 265 266 267 268 270 274 276 276 277 278 279 277 275 275 276 277 279 281 282 283 283 285 286 287 287 286 286 286 288 289 290 290 290 289 289 287 287 287 287 288 288 288 288 289 290 289 288 289 291 292 294 296 298 299 300 301 300 300 299 298 298 299 300 301 300 299 298 298
258 258 258 261 264 266 267 267 268 269 270 272 275 276 278 281 281 279 276 276 277 278 280 281 282 282 282 283 285 286 286 287 287 288 289 290 291 291 291 291 291 290 289 289 288 288 288 287 287 287 288 289 288 288 288 289 290 291 293 295 297 298 299 299 298 297 296 296 297 298 299 298 296 294
260 262 263 265 266 266 267 267 268 269 270 272 274 276 278 280 281 281 280 279 279 280 281 281 282 283 283 284 285 287 288 289 290 291 292 292 291 292 292 293 292 292 292 292 292 291 290 289 288 287 286 287 287 287 288 288 288 289 290 292 294 295 296 297 298 298 297 296 294 294 294 294 294 293
262 265 267 267 267 268 268 268 268 268 271 273 274 275 276 277 277 279 280 282 283 283 284 283 282 282 283 284 286 290 292 293 293 293 293 293 293 293 293 294 294 294 294 294 294 294 293 292 291 289 288 287 287 287 287 288 289 289 289 290 291 293 294 295 296 297 298 297 296 294 293 292 293 294
259 262 264 265 266 268 269 270 271 272 273 275 275 276 276 276 276 277 279 282 284 286 287 286 285 284 284 284 286 290 293 294 293 294 294 294 294 293 293 294 294 294 293 293 293 293 292 292 291 290 290 290 290 290 288 288 289 289 289 289 290 291 292 292 292 293 295 296 296 295 294 294 294 293
257 259 261 263 264 265 267 270 272 273 274 275 276 277 277 278 278 278 280 282 284 285 286 287 287 286 285 285 286 289 290 290 290 291 292 292 292 292 292 293 293 293 293 293 293 292 292 291 290 290 290 291 292 292 291 290 289 289 289 289 289 289 289 289 289 289 290 291 292 293 294 293 293 292
259 260 262 264 265 267 268 270 272 274 275 276 277 278 279 279 279 279 280 282 283 284 285 285 285 285 285 286 287 288 289 289 289 289 288 289 289 289 290 290 290 291 291 291 292 291 291 290 290 289 289 289 290 290 291 291 290 289 289 289 290 289 288 287 288 288 288 287 288 289 290 291 291 290
262 264 265 267 268 270 271 272 273 275 277 279 280 280 280 279 279 278 279 279 280 280 281 281 282 282 283 285 286 287 288 288 289 289 289 288 288 289 289 289 289 289 289 290 290 290 290 290 290 290 289 289 288 288 289 289 289 289 288 288 289 289 288 287 287 287 287 286 286 286 286 287 288 288
266 267 268 269 270 271 272 273 273 274 275 277 278 279 280 280 279 279 279 279 280 280 279 279 279 280 281 282 283 285 286 287 289 289 289 289 289 290 290 290 290 290 290 290 290 290 290 290 290 290 290 290 290 290 289 288 288 288 287 286 286 286 286 287 287 286 285 285 284 284 284 285 286 286
268 269 270 271 273 274 275 275 275 275 275 275 275 276 277 277 278 279 279 280 281 280 280 279 280 280 280 281 281 283 284 285 287 288 288 288 288 289 289 289 289 290 289 289 289 289 289 288 288 289 289 289 290 290 290 289 288 287 286 285 285 284 284 284 284 285 285 285 284 283 282 283 285 285
266 267 269 270 272 273 274 275 277 277 277 277 277 276 276 276 276 277 278 279 279 278 278 279 280 280 280 280 281 282 282 283 284 285 286 287 287 287 288 288 288 288 288 288 287 287 287 287 286 286 286 286 287 287 288 288 288 287 286 285 285 284 284 283 283 283 283 284 283 282 281 281 281 283
264 266 267 269 270 272 273 274 276 277 278 278 278 278 278 278 278 278 278 279 278 279 280 281 281 281 281 282 283 283 283 284 284 284 285 285 286 286 287 287 287 287 287 287 287 287 287 286 286 286 285 285 284 285 285 286 286 287 286 285 285 284 283 283 283 283 283 283 283 282 281 280 279 281
265 266 267 268 270 271 273 274 275 275 276 277 277 277 278 279 280 280 281 281 281 282 283 283 284 284 284 284 285 285 285 285 285 285 285 285 285 285 285 285 285 286 286 286 287 286 286 286 286 286 285 285 284 284 283 284 285 287 286 285 284 283 283 282 281 281 282 282 282 282 282 281 280 279
266 266 268 269 270 271 272 273 274 275 275 276 276 277 278 278 279 280 281 282 283 283 284 285 285 286 286 287 287 287 287 287 287 287 287 286 285 285 285 284 284 284 284 284 284 285 285 285 285 285 285 284 284 283 282 282 283 284 286 286 285 284 284 283 282 281 280 280 280 280 281 281 280 278
266 267 268 269 270 271 272 273 274 275 275 276 277 277 278 279 280 281 282 283 283 284 285 286 286 286 287 287 287 288 288 288 288 288 287 287 287 286 286 285 285 284 283 283 283 283 283 283 283 283 283 283 283 283 282 282 281 281 282 283 284 284 283 283 283 282 281 281 280 280 280 280 279 279
266 267 268 269 270 271 272 272 273 274 275 275 276 277 278 279 280 281 282 283 283 284 285 286 286 286 287 287 287 287 288 288 288 288 288 288 288 287 287 287 287 286 285 285 284 284 283 283 282 282 282 282 282 282 281 281 281 280 280 281 282 282 282 281 281 281 280 280 280 280 279 279 279 279
264 265 267 268 269 270 271 272 273 274 274 275 276 277 278 279 280 280 281 282 283 284 284 285 285 285 286 286 286 287 287 288 288 288 288 288 288 289 289 289 288 288 287 287 287 286 286 285 285 284 284 284 283 283 282 281 281 281 280 280 281 281 282 282 281 281 280 280 279 279 279 278 278 277
263 264 265 266 268 269 270 270 271 272 273 274 275 276 277 278 279 280 281 282 282 283 283 283 284 284 285 285 286 286 286 286 287 287 287 287 288 288 289 289 289 288 288 288 287 287 287 287 287 286 286 286 286 285 285 284 283 282 281 281 281 281 281 281 282 282 281 281 280 280 279 278 277 276
264 265 266 266 267 268 269 270 271 272 272 274 275 276 277 278 279 279 280 281 281 282 282 283 283 284 284 284 285 285 285 285 285 286 286 287 287 287 287 287 287 287 287 287 287 287 287 287 287 287 287 287 287 286 286 286 285 284 283 282 281 280 280 280 280 280 281 281 281 281 280 279 278 277
267 267 267 267 268 268 269 270 271 272 273 274 275 276 277 277 278 279 280 280 281 281 282 282 283 283 283 283 283 283 284 284 284 285 285 286 286 286 286 286 286 286 286 286 286 286 286 287 287 287 287 287 287 287 286 286 286 285 285 284 283 282 281 280 279 278 278 279 279 280 280 280 280 279
268 268 268 268 268 269 269 270 271 272 273 274 274 275 276 277 277 278 279 279 280 281 281 282 282 282 282 282 282 282 283 283 284 284 284 284 285 285 285 285 285 285 285 285 285 285 285 286 286 286 287 287 287 287 287 286 286 286 285 285 285 284 283 283 281 280 279 278 278 278 278 278 279 279
Height
5965 5966 5966 5966 5966 5966 5967 5967 5968 5969 5969 5969 5968 5967 5967 5967 5967 5967 5966 5966 5965 5966 5966 5966 5966 5966 5965 5964 5963 5963 5962 5962 5962 5960 5959 5958 5957 5956 5955 5954 5954 5953 5952 5952 5951 5950 5949 5948 5947 5946 5945 5944 5943 5941 5940 5938 5937 5935 5933 5932 5930 5928 5927 5925 5923 5921 5919 5918 5916 5914 5912 5910 5909 5908
5965 5965 5966 5966 5966 5967 5967 5967 5967 5967 5968 5968 5967 5967 5967 5966 5966 5966 5966 5965 5965 5965 5966 5966 5966 5966 5965 5964 5963 5962 5962 5962 5961 5960 5958 5957 5956 5955 5955 5954 5954 5953 5952 5952 5951 5950 5949 5949 5948 5947 5945 5944 5943 5942 5940 5939 5937 5935 5934 5932 5930 5929 5927 5926 5924 5922 5921 5919 5918 5916 5914 5912 5911 5910
5965 5965 5965 5965 5966 5966 5966 5966 5966 5966 5967 5967 5966 5965 5966 5966 5966 5965 5965 5964 5964 5964 5965 5965 5965 5965 5964 5963 5962 5962 5962 5961 5960 5958 5957 5956 5955 5955 5954 5954 5953 5953 5953 5952 5951 5951 5950 5949 5948 5947 5946 5944 5943 5942 5941 5939 5937 5936 5934 5932 5931 5929 5928 5926 5925 5923 5922 5920 5919 5918 5916 5915 5913 5912
5965 5964 5965 5965 5965 5965 5965 5965 5965 5965 5966 5966 5966 5965 5965 5965 5965 5964 5964 5963 5963 5963 5963 5963 5963 5963 5963 5962 5961 5961 5961 5960 5959 5957 5956 5955 5955 5954 5954 5954 5953 5953 5952 5952 5951 5951 5950 5949 5948 5947 5946 5944 5943 5942 5941 5939 5938 5936 5934 5933 5931 5930 5928 5927 5925 5924 5923 5921 5920 5919 5918 5917 5915 5914
5965 5964 5964 5965 5965 5965 5965 5965 5965 5965 5965 5966 5966 5966 5966 5965 5964 5964 5964 5963 5963 5963 5962 5962 5962 5962 5962 5961 5960 5959 5959 5958 5957 5956 5955 5955 5954 5954 5954 5954 5953 5952 5952 5951 5951 5950 5950 5949 5948 5947 5946 5944 5943 5942 5941 5940 5938 5936 5935 5933 5931 5930 5929 5928 5926 5925 5923 5922 5921 5920 5919 5918 5917 5916
5964 5964 5964 5964 5964 5965 5964 5964 5964 5964 5964 5965 5965 5965 5965 5965 5964 5964 5963 5963 5962 5962 5962 5962 5962 5961 5960 5959 5959 5958 5957 5957 5956 5956 5955 5954 5954 5954 5954 5953 5953 5952 5951 5951 5950 5950 5949 5949 5948 5947 5946 5945 5943 5942 5941 5940 5938 5937 5935 5933 5932 5930 5929 5928 5927 5925 5924 5923 5922 5921 5920 5919 5918 5917
5963 5964 5964 5964 5964 5964 5964 5963 5963 5963 5963 5964 5964 5963 5963 5964 5963 5963 5963 5962 5962 5961 5961 5961 5961 5960 5959 5958 5958 5957 5957 5956 5956 5955 5954 5954 5953 5953 5953 5953 5952 5951 5950 5950 5949 5949 5949 5948 5947 5947 5946 5945 5943 5942 5941 5940 5938 5937 5935 5934 5932 5931 5930 5929 5927 5926 5925 5924 5923 5921 5920 5920 5919 5918
5963 5963 5963 5963 5963 5963 5963 5963 5963 5962 5962 5962 5962 5962 5962 5962 5961 5962 5962 5961 5961 5961 5960 5960 5960 5959 5958 5957 5957 5957 5956 5956 5955 5955 5954 5953 5952 5952 5952 5952 5951 5950 5950 5949 5948 5948 5948 5947 5947 5946 5945 5944 5943 5942 5941 5940 5938 5937 5936 5934 5933 5931 5930 5929 5928 5927 5925 5924 5923 5922 5921 5920 5919 5919
5962 5962 5962 5962 5962 5962 5962 5962 5962 5962 5961 5961 5961 5960 5960 5960 5960 5960 5960 5960 5960 5960 5959 5959 5959 5958 5958 5957 5957 5957 5956 5956 5955 5954 5953 5952 5952 5951 5951 5951 5950 5950 5949 5948 5948 5947 5947 5947 5946 5945 5945 5944 5943 5942 5941 5940 5938 5937 5936 5934 5933 5932 5930 5929 5928 5927 5926 5925 5924 5923 5922 5921 5920 5919
5961 5961 5961 5961 5961 5961 5961 5961 5961 5961 5961 5961 5960 5959 5959 5959 5959 5959 5959 5959 5959 5959 5958 5958 5958 5958 5957 5957 5956 5956 5956 5955 5954 5954 5953 5952 5951 5950 5950 5950 5949 5949 5948 5947 5947 5947 5946 5946 5945 5945 5944 5944 5943 5941 5940 5939 5938 5937 5936 5934 5933 5932 5931 5929 5928 5927 5926 5925 5924 5923 5922 5921 5920 5920
5959 5959 5959 5960 5960 5960 5960 5960 5960 5960 5960 5960 5959 5959 5958 5958 5958 5957 5957 5957 5957 5957 5957 5957 5957 5957 5956 5956 5956 5956 5955 5954 5954 5953 5952 5951 5950 5949 5949 5948 5948 5948 5947 5947 5946 5946 5946 5945 5945 5944 5944 5943 5943 5941 5940 5939 5938 5937 5936 5934 5933 5932 5931 5930 5928 5927 5926 5925 5924 5924 5923 5922 5921 5920
5958 5958 5958 5958 5958 5958 5958 5959 5959 5959 5958 5958 5958 5958 5958 5957 5956 5956 5956 5956 5956 5956 5956 5956 5955 5955 5955 5955 5955 5954 5954 5953 5953 5952 5952 5951 5950 5949 5948 5947 5947 5947 5946 5945 5945 5945 5945 5944 5944 5944 5943 5943 5942 5941 5939 5938 5937 5936 5936 5935 5933 5932 5931 5930 5928 5927 5926 5925 5924 5923 5923 5922 5921 5920
5955 5956 5956 5956 5957 5957 5957 5957 5957 5957 5957 5956 5956 5956 5956 5956 5955 5955 5955 5955 5954 5954 5954 5954 5954 5954 5953 5953 5953 5953 5953 5952 5952 5951 5951 5950 5950 5949 5947 5946 5946 5946 5946 5944 5944 5945 5945 5944 5943 5943 5943 5942 5942 5940 5939 5938 5937 5936 5935 5934 5933 5932 5931 5930 5928 5927 5926 5925 5924 5923 5922 5922 5921 5920
5953 5953 5954 5954 5954 5955 5954 5954 5954 5954 5954 5954 5954 5954 5954 5954 5954 5953 5953 5953 5953 5953 5953 5952 5953 5953 5952 5951 5951 5951 5951 5950 5950 5950 5950 5949 5949 5948 5946 5944 5944 5944 5945 5944 5943 5943 5943 5943 5942 5942 5941 5941 5941 5940 5939 5938 5937 5936 5935 5934 5933 5932 5931 5929 5928 5927 5926 5924 5923 5922 5922 5921 5920 5920
5950 5950 5951 5951 5951 5952 5952 5952 5952 5952 5951 5952 5952 5952 5952 5952 5951 5951 5951 5952 5952 5952 5951 5950 5951 5951 5950 5950 5949 5949 5949 5949 5949 5948 5948 5948 5947 5946 5945 5944 5942 5942 5943 5943 5942 5942 5942 5941 5941 5941 5940 5939 5939 5939 5938 5937 5936 5935 5934 5933 5932 5931 5930 5929 5928 5926 5925 5924 5923 5922 5921 5920 5919 5919
5948 5948 5949 5948 5949 5950 5951 5952 5951 5949 5949 5949 5949 5950 5950 5949 5950 5950 5950 5950 5950 5949 5949 5949 5949 5949 5949 5948 5947 5947 5947 5947 5947 5946 5946 5945 5945 5945 5944 5942 5941 5940 5941 5942 5941 5940 5940 5940 5939 5939 5938 5937 5937 5936 5936 5936 5935 5934 5933 5932 5931 5930 5929 5928 5927 5926 5925 5924 5923 5922 5920 5919 5918 5917
5947 5947 5947 5946 5946 5947 5949 5950 5949 5948 5948 5948 5948 5948 5948 5947 5948 5948 5948 5948 5948 5947 5947 5946 5946 5946 5946 5946 5945 5945 5946 5945 5945 5945 5944 5943 5943 5942 5941 5940 5939 5939 5939 5940 5939 5938 5938 5938 5937 5937 5936 5936 5935 5934 5934 5934 5933 5932 5931 5930 5929 5928 5927 5926 5926 5925 5924 5923 5922 5921 5920 5919 5918 5916
5944 5943 5944 5943 5943 5943 5944 5945 5946 5946 5946 5946 5946 5946 5946 5945 5946 5945 5945 5946 5946 5945 5945 5944 5944 5943 5944 5944 5944 5943 5944 5944 5943 5943 5942 5941 5941 5940 5939 5938 5937 5937 5937 5937 5937 5936 5935 5935 5935 5935 5934 5934 5933 5932 5932 5932 5931 5930 5929 5928 5927 5926 5925 5924 5923 5923 5922 5921 5920 5919 5919 5918 5917 5915
5940 5941 5941 5941 5940 5940 5941 5942 5942 5943 5943 5944 5944 5944 5943 5943 5944 5943 5943 5943 5943 5943 5942 5942 5941 5941 5941 5941 5941 5941 5941 5941 5941 5941 5940 5939 5939 5939 5937 5936 5935 5934 5934 5935 5935 5934 5933 5933 5933 5932 5932 5931 5930 5930 5930 5929 5928 5928 5927 5926 5925 5924 5923 5922 5921 5920 5919 5919 5918 5918 5917 5916 5915 5914
5937 5938 5939 5939 5938 5938 5938 5939 5939 5940 5940 5941 5941 5941 5941 5941 5941 5941 5941 5940 5940 5940 5940 5940 5939 5939 5939 5939 5939 5939 5939 5939 5939 5938 5938 5938 5937 5937 5935 5934 5933 5931 5931 5931 5932 5931 5930 5930 5930 5930 5929 5928 5927 5927 5926 5926 5926 5925 5925 5924 5923 5922 5921 5920 5919 5917 5917 5916 5916 5915 5915 5914 5913 5912
5934 5935 5935 5936 5936 5935 5935 5936 5936 5936 5937 5937 5938 5938 5938 5938 5938 5939 5938 5937 5937 5937 5937 5937 5937 5937 5937 5936 5936 5936 5936 5936 5936 5935 5935 5935 5935 5934 5933 5932 5931 5929 5929 5928 5928 5928 5928 5927 5927 5927 5926 5925 5924 5924 5923 5923 5923 5923 5922 5921 5920 5919 5919 5917 5916 5915 5914 5913 5913 5912 5912 5911 5911 5910
5931 5931 5932 5932 5932 5932 5932 5932 5933 5933 5934 5935 5935 5935 5935 5935 5935 5935 5935 5934 5935 5934 5934 5934 5934 5934 5934 5933 5933 5932 5932 5932 5932 5933 5932 5932 5932 5931 5931 5930 5929 5927 5927 5927 5926 5926 5925 5925 5924 5925 5924 5922 5921 5920 5920 5919 5918 5919 5919 5918 5918 5917 5916 5915 5913 5913 5912 5911 5910 5909 5909 5909 5908 5907
5927 5928 5928 5928 5928 5928 5929 5929 5930 5931 5931 5932 5932 5932 5931 5931 5932 5932 5931 5931 5931 5931 5931 5931 5931 5930 5930 5930 5930 5929 5929 5928 5928 5929 5929 5929 5929 5928 5928 5928 5927 5925 5924 5924 5924 5923 5923 5922 5922 5922 5922 5921 5918 5917 5917 5915 5914 5914 5915 5915 5914 5914 5913 5912 5911 5910 5909 5908 5907 5906 5906 5906 5905 5904
5923 5923 5924 5924 5924 5925 5926 5926 5927 5927 5927 5927 5928 5928 5928 5928 5928 5928 5928 5928 5928 5928 5928 5927 5927 5926 5926 5926 5926 5926 5925 5925 5925 5925 5925 5925 5925 5925 5925 5924 5924 5923 5922 5922 5922 5921 5920 5919 5919 5918 5919 5919 5918 5915 5914 5913 5912 5911 5910 5910 5910 5910 5910 5909 5908 5907 5906 5905 5904 5904 5903 5902 5902 5901
5919 5920 5920 5920 5920 5921 5922 5923 5923 5923 5923 5923 5923 5924 5924 5924 5924 5924 5924 5924 5924 5925 5925 5924 5924 5923 5923 5922 5922 5922 5922 5922 5922 5922 5921 5921 5921 5921 5921 5920 5920 5919 5918 5918 5918 5918 5917 5916 5916 5915 5915 5915 5915 5914 5912 5911 5910 5909 5907 5906 5905 5905 5905 5905 5904 5904 5903 5902 5900 5900 5899 5899 5898 5897
5916 5916 5917 5917 5918 5918 5919 5919 5919 5919 5919 5920 5920 5920 5920 5920 5920 5920 5920 5920 5920 5921 5921 5921 5920 5920 5920 5919 5919 5918 5918 5918 5918 5918 5918 5917 5917 5917 5917 5916 5916 5915 5915 5914 5914 5914 5914 5913 5912 5912 5912 5911 5911 5911 5910 5908 5907 5906 5905 5904 5902 5901 5900 5900 5899 5899 5899 5899 5898 5896 5895 5894 5893 5893
5912 5912 5913 5914 5914 5915 5915 5915 5915 5916 5916 5916 5916 5916 5916 5916 5916 5916 5916 5916 5916 5916 5917 5917 5916 5916 5916 5915 5915 5914 5914 5914 5914 5914 5914 5913 5913 5913 5912 5912 5912 5911 5911 5910 5910 5910 5910 5909 5909 5908 5908 5908 5907 5907 5906 5905 5904 5903 5902 5901 5899 5898 5897 5896 5895 5894 5894 5894 5894 5894 5892 5890 5889 5888
5907 5908 5909 5910 5910 5911 5911 5912 5912 5912 5912 5912 5912 5912 5913 5913 5913 5913 5912 5912 5913 5912 5912 5913 5912 5912 5912 5912 5911 5911 5910 5910 5910 5910 5910 5909 5908 5908 5908 5908 5907 5907 5906 5906 5905 5905 5905 5905 5905 5904 5904 5903 5903 5903 5902 5901 5900 5899 5898 5898 5896 5895 5893 5892 5891 5890 5890 5889 5889 5889 5888 5887 5886 5885
5904 5905 5905 5906 5907 5907 5907 5908 5908 5908 5908 5908 5909 5909 5909 5909 5909 5909 5909 5909 5909 5909 5908 5908 5908 5908 5908 5908 5907 5907 5906 5906 5906 5906 5905 5905 5904 5903 5903 5903 5902 5902 5901 5901 5900 5900 5900 5900 5900 5900 5899 5899 5898 5898 5898 5898 5897 5895 5894 5893 5893 5891 5889 5888 5888 5887 5886 5885 5884 5883 5883 5883 5882 5882
5902 5902 5902 5902 5903 5903 5904 5904 5904 5904 5905 5905 5905 5905 5905 5905 5905 5904 5904 5904 5904 5904 5904 5904 5904 5903 5903 5903 5903 5903 5902 5902 5902 5901 5901 5900 5899 5899 5898 5898 5897 5896 5896 5895 5895 5894 5894 5894 5894 5894 5894 5894 5893 5892 5892 5893 5893 5891 5889 5888 5888 5888 5886 5884 5883 5883 5882 5882 5880 5879 5878 5877 5877 5877
5897 5898 5898 5898 5899 5899 5900 5900 5900 5900 5900 5900 5900 5900 5900 5900 5900 5900 5900 5899 5899 5899 5899 5899 5899 5898 5897 5897 5897 5897 5897 5896 5897 5897 5896 5896 5895 5894 5894 5894 5893 5892 5891 5890 5889 5889 5888 5888 5888 5888 5888 5888 5888 5887 5886 5886 5886 5886 5885 5883 5882 5882 5881 5879 5878 5878 5877 5877 5877 5875 5874 5873 5872 5871
5892 5893 5893 5894 5894 5894 5895 5895 5895 5895 5895 5895 5895 5895 5895 5895 5895 5895 5895 5895 5895 5895 5895 5894 5894 5893 5893 5892 5892 5891 5891 5890 5890 5890 5890 5890 5889 5889 5889 5888 5888 5887 5887 5886 5884 5883 5882 5882 5882 5881 5881 5881 5881 5881 5881 5880 5879 5879 5879 5878 5877 5876 5875 5874 5873 5873 5872 5872 5872 5872 5871 5869 5867 5866
5886 5887 5887 5888 5888 5889 5889 5889 5890 5890 5890 5890 5890 5890 5889 5889 5889 5889 5889 5889 5890 5890 5890 5889 5889 5888 5888 5888 5887 5886 5886 5885 5885 5884 5883 5883 5883 5883 5883 5882 5882 5881 5881 5880 5879 5878 5877 5876 5876 5875 5875 5874 5874 5874 5874 5874 5874 5872 5872 5872 5871 5870 5869 5867 5866 5866 5866 5866 5866 5867 5866 5865 5862 5860
5880 5881 5881 5881 5882 5882 5882 5883 5883 5884 5884 5885 5885 5885 5884 5884 5883 5883 5883 5884 5884 5883 5883 5883 5883 5883 5883 5882 5882 5882 5881 5880 5880 5879 5878 5877 5877 5876 5876 5876 5875 5875 5874 5874 5873 5872 5871 5871 5870 5869 5869 5868 5868 5867 5866 5866 5867 5867 5866 5865 5864 5864 5863 5861 5860 5859 5859 5858 5858 5860 5861 5861 5858 5854
5875 5875 5875 5875 5876 5876 5876 5876 5877 5877 5877 5878 5878 5878 5878 5878 5878 5877 5878 5878 5878 5877 5877 5878 5877 5877 5877 5876 5876 5876 5875 5875 5875 5874 5873 5871 5871 5870 5870 5870 5869 5869 5868 5867 5866 5865 5865 5864 5863 5863 5863 5863 5863 5863 5860 5858 5858 5859 5859 5858 5857 5857 5856 5855 5853 5853 5852 5851 5850 5851 5853 5854 5854 5850
5870 5870 5870 5870 5870 5870 5870 5870 5871 5871 5871 5871 5871 5871 5871 5871 5871 5871 5871 5871 5871 5870 5871 5871 5870 5870 5869 5869 5869 5869 5868 5868 5868 5868 5867 5866 5865 5864 5864 5863 5863 5862 5861 5860 5859 5858 5857 5856 5855 5855 5856 5856 5857 5858 5856 5853 5851 5850 5850 5850 5850 5849 5848 5848 5847 5846 5844 5843 5842 5842 5843 5845 5847 5845
5863 5864 5864 5864 5864 5864 5864 5864 5864 5865 5865 5865 5865 5865 5865 5864 5864 5864 5864 5863 5863 5863 5863 5863 5862 5862 5861 5861 5861 5861 5860 5860 5859 5859 5859 5859 5858 5857 5857 5856 5856 5855 5854 5853 5852 5851 5850 5849 5847 5846 5846 5847 5848 5849 5850 5849 5847 5844 5840 5840 5842 5842 5840 5840 5840 5839 5837 5835 5834 5833 5833 5835 5837 5838
5857 5857 5858 5858 5858 5858 5858 5858 5858 5858 5858 5858 5858 5858 5858 5858 5858 5857 5856 5856 5856 5856 5856 5855 5854 5854 5853 5853 5852 5852 5851 5851 5850 5850 5850 5849 5849 5849 5848 5848 5848 5847 5847 5846 5845 5843 5842 5841 5840 5838 5837 5837 5837 5838 5840 5842 5843 5840 5834 5830 5831 5832 5831 5830 5830 5831 5830 5828 5827 5825 5825 5825 5826 5828
5850 5851 5851 5851 5851 5851 5851 5851 5851 5851 5851 5851 5851 5851 5851 5851 5850 5850 5849 5848 5848 5848 5848 5847 5847 5846 5845 5845 5844 5843 5843 5842 5841 5841 5840 5840 5840 5839 5838 5838 5838 5838 5838 5838 5837 5835 5834 5833 5831 5830 5829 5828 5828 5828 5828 5830 5833 5834 5831 5825 5822 5822 5822 5820 5819 5819 5819 5819 5817 5817 5817 5816 5816 5816
5844 5844 5843 5843 5843 5844 5844 5844 5844 5844 5843 5844 5843 5843 5843 5843 5842 5842 5841 5840 5840 5840 5840 5839 5838 5838 5837 5836 5835 5835 5834 5833 5832 5832 5831 5831 5830 5829 5829 5828 5828 5828 5828 5828 5827 5826 5825 5823 5822 5821 5820 5819 5819 5818 5818 5819 5820 5821 5821 5819 5816 5813 5812 5811 5809 5808 5808 5808 5806 5806 5806 5806 5806 5806
5836 5835 5835 5835 5836 5836 5836 5836 5836 5836 5836 5836 5836 5836 5836 5835 5834 5834 5833 5833 5832 5832 5832 5831 5830 5830 5829 5828 5827 5827 5826 5825 5824 5823 5822 5821 5820 5819 5819 5818 5817 5817 5817 5817 5816 5815 5814 5813 5812 5811 5810 5809 5808 5808 5808 5808 5809 5809 5809 5809 5807 5804 5803 5801 5799 5798 5797 5796 5795 5794 5794 5793 5793 5795
5828 5828 5828 5828 5829 5829 5829 5828 5828 5827 5827 5828 5828 5828 5827 5826 5826 5826 5825 5824 5824 5824 5823 5822 5822 5821 5820 5819 5819 5818 5817 5816 5815 5814 5813 5812 5811 5811 5810 5808 5807 5806 5805 5805 5805 5804 5803 5802 5800 5799 5799 5797 5796 5796 5796 5796 5797 5798 5798 5798 5797 5795 5793 5792 5790 5788 5786 5785 5783 5782 5782 5780 5780 5782
5820 5820 5820 5821 5821 5820 5820 5819 5819 5819 5819 5819 5820 5819 5818 5817 5817 5817 5817 5816 5816 5815 5814 5814 5814 5812 5811 5811 5810 5809 5808 5807 5806 5805 5805 5804 5803 5802 5801 5799 5797 5796 5795 5794 5794 5793 5792 5791 5790 5788 5787 5786 5784 5783 5783 5783 5783 5784 5784 5784 5784 5784 5783 5781 5780 5779 5777 5775 5772 5769 5768 5766 5766 5768
5812 5812 5812 5812 5812 5811 5811 5810 5810 5810 5810 5811 5810 5810 5809 5808 5808 5808 5808 5807 5807 5807 5806 5805 5805 5804 5802 5801 5801 5800 5799 5798 5797 5796 5796 5795 5793 5792 5790 5788 5787 5786 5785 5784 5783 5783 5782 5780 5779 5777 5776 5775 5772 5770 5770 5770 5770 5769 5770 5769 5769 5769 5769 5768 5768 5767 5767 5767 5763 5758 5756 5754 5752 5752
5803 5803 5803 5803 5803 5802 5802 5802 5802 5802 5802 5801 5801 5801 5800 5800 5800 5800 5799 5799 5799 5798 5797 5796 5795 5794 5792 5792 5791 5790 5789 5789 5788 5787 5786 5784 5783 5781 5779 5777 5776 5775 5774 5772 5772 5771 5771 5769 5768 5765 5764 5763 5761 5758 5756 5756 5756 5755 5755 5755 5754 5753 5752 5752 5751 5751 5753 5755 5753 5748 5745 5743 5741 5740